Location: Wildcat Hills Observatory
(41.6350°N, 103.6812°W)
Time: 12:34:19
(UTC-06:00)

Daily predictions for brighter satellites

Satellite Brightness Start Highest point End
(mag) Time Altitude Azimuth Time Altitude Azimuth Time Altitude Azimuth
Meteor 2-3 Rocket 3.7 20:41:30 10° S 20:47:07 78° E 20:52:43 10° NNE
Cosmos 2074 Rocket 4.2 20:41:56 10° SSE 20:48:00 53° E 20:54:05 10° NNE
Cosmos 1340 Rocket 2.8 20:49:10 10° S 20:53:08 83° E 20:57:11 10° NNE
Cosmos 2263 Rocket 3.2 20:52:34 10° SW 20:58:06 52° WNW 21:03:36 10° NNE
Resurs 01 Rocket 4.4 20:55:31 10° SW 20:58:19 17° W 21:01:08 10° NW
FENGYUN 3A 4.4 20:53:12 10° S 20:58:28 54° W 21:03:46 10° NNW
Cosmos 1782 3.5 20:56:10 10° N 20:59:55 36° ENE 21:03:39 10° SE
Cosmos 1939 Rocket 3.1 20:57:29 10° SSE 21:01:13 51° ENE 21:05:01 10° N
NOSS 2-2 (C) 3.6 20:57:17 10° SSW 21:01:16 55° ESE 21:05:50 10° NE
Cosmos 1624 Rocket 4.1 20:57:17 10° S 21:02:27 61° ESE 21:07:40 10° NNE
Envisat 3.3 20:58:08 10° SSE 21:03:02 52° ENE 21:07:59 10° N
Okean 1-7 4.1 20:59:25 10° NNW 21:03:31 46° W 21:07:39 10° SSW
Atlas Centaur 2 3.0 21:05:32 10° SSW 21:07:27 14° S 21:09:15 11° SE
NOSS 8 (A) 4.4 21:04:03 10° SSW 21:07:33 70° ESE 21:11:14 10° NE
SJ-11-01 4.3 21:03:59 10° SSE 21:08:44 90° SE 21:13:31 10° NNW
ERBS 2.4 21:05:20 10° NW 21:08:48 73° NE 21:11:51 13° SE
Cosmos 1238 Rocket 4.3 21:07:00 10° NE 21:08:58 15° ENE 21:10:41 11° ESE
H-2A R/B 4.2 21:07:15 10° E 21:09:32 13° ENE 21:11:49 10° NNE
Cosmos 1461 4.1 21:05:04 10° SW 21:09:39 53° NW 21:14:07 10° NNE
Sich 1 Rocket 4.2 21:05:44 10° SSE 21:09:58 39° E 21:14:13 10° NNE
ALOS 4.0 21:09:00 10° SSW 21:13:11 32° W 21:17:23 10° NNW
SPOT 5 3.5 21:08:18 10° SE 21:13:18 48° ENE 21:18:26 10° N
Cosmos 1606 3.7 21:10:03 10° NNE 21:13:35 30° ENE 21:16:29 13° SE
Cosmos 1674 Rocket 3.7 21:10:03 10° N 21:14:27 57° E 21:18:50 10° SSE
Meteor 2-10 Rocket 3.9 21:08:59 10° N 21:14:50 85° W 21:20:32 10° S
NOSS 2-2 (E) 3.6 21:16:03 10° SW 21:20:12 88° NW 21:25:06 10° NE
Cosmos 407 Rocket 3.8 21:15:38 10° N 21:20:48 54° ENE 21:25:17 14° SE
Cosmos 1892 3.1 21:17:08 10° SSW 21:20:56 66° W 21:24:46 10° N
Terra 3.9 21:22:11 10° E 21:24:01 12° ENE 21:25:52 10° NE
SPOT 1/Viking Rocket 4.4 21:20:10 13° SE 21:24:08 34° ENE 21:28:48 10° N
Cosmos 1452 Rocket 4.0 21:21:35 10° SSE 21:26:24 38° ESE 21:31:14 10° NE
ERS-1 Rocket 3.5 21:23:59 10° S 21:28:56 60° WSW 21:33:56 10° NNW
PSLV R/B 3.7 21:26:05 10° W 21:29:27 49° SSW 21:31:34 20° SE
Cosmos 1190 Rocket 4.0 21:27:17 10° NNW 21:32:31 84° ENE 21:36:59 14° SSE
Coronas F rocket 3.2 21:30:34 10° SW 21:32:59 31° WNW 21:35:25 10° NNW
Abrixas rocket 4.3 21:32:20 10° W 21:34:53 19° SW 21:36:58 12° S
Meteor 2-6 Rocket 4.4 21:33:21 10° N 21:39:21 85° W 21:45:12 10° S
BREEZE-M DEB (TANK) 3.5 21:38:44 10° WNW 21:40:32 24° NNW 21:42:34 10° NE
Okean 3 4.1 21:36:31 10° N 21:40:34 40° ENE 21:42:53 22° SE
Cosmos 1975 Rocket 3.8 21:38:47 10° N 21:42:47 36° ENE 21:44:54 22° SE
deb Chang Zheng 4 4.2 21:42:21 10° N 21:46:42 61° WNW 21:51:03 10° SSW
CZ-4B R/B 3.7 21:45:44 10° NNE 21:50:33 48° E 21:53:56 18° SSE
SL-8 R/B 4.0 21:45:55 10° WSW 21:50:44 71° NNW 21:55:33 10° ENE
Cosmos 2154 Rocket 3.9 21:45:33 10° S 21:51:47 82° E 21:58:00 10° N
Cosmos 1908 Rocket 3.5 21:47:57 10° S 21:52:20 87° ESE 21:56:47 10° N
USA 234 3.7 21:47:13 10° ENE 21:53:12 37° SE 21:59:09 10° SSW
MetOp-B 4.1 21:49:01 16° SSE 21:53:19 89° ENE 21:58:42 10° NNW
COSMOS 2406 4.1 21:52:00 10° NW 21:57:27 45° WSW 22:02:27 12° S
USA 245 2.9 21:56:41 37° SE 21:57:42 61° ENE 22:01:21 10° N
Cosmos 1378 Rocket 3.4 21:54:27 10° N 21:58:47 86° E 22:01:24 23° S
Cosmos 1184 Rocket 2.9 21:57:59 35° SSE 21:59:04 53° E 22:02:20 10° NNE
TIMED 4.4 21:54:56 10° SSW 21:59:18 82° ESE 22:03:41 10° NNE
SL-08 RB Rocket 4.1 21:57:07 26° SE 21:59:21 49° ENE 22:03:50 10° N
STPSAT 2 (USA 217) 4.5 21:56:55 10° SSW 22:01:23 85° ESE 22:05:55 10° NNE
Cosmos 676 Rocket 4.0 21:57:15 10° NNW 22:02:29 88° WSW 22:05:40 24° SSE
ARGOS 3.2 22:01:22 24° SSE 22:04:36 69° ENE 22:09:56 10° N
ATLAS 5 CENTAUR R/B 3.3 22:00:03 10° NW 22:05:45 43° WSW 22:10:26 16° S
CZ-4 R/B 3.9 22:02:45 10° NNE 22:07:19 51° E 22:09:28 28° SSE
Cosmos 1862 3.5 22:04:27 14° SSW 22:07:56 72° W 22:12:02 10° N
Intercosmos 25 3.3 22:06:57 36° SSE 22:08:03 50° E 22:11:11 10° NNE
Cosmos 1174 3.0 22:05:57 10° NNW 22:09:14 85° WSW 22:09:48 55° SSE
Cosmos 1954 Rocket 3.9 22:04:11 10° NNW 22:09:25 83° ENE 22:12:09 29° SSE
NOSS 5 (C) 4.1 22:06:42 10° SSW 22:10:08 87° ESE 22:13:15 10° NE
SL-27 R/B 4.4 22:11:10 10° NW 22:14:14 26° W 22:16:29 14° SSW
Elektron 3 4.2 22:11:25 10° NNW 22:14:18 62° NE 22:15:21 40° ESE
Cosmos 1825 2.5 22:12:51 19° SSW 22:15:28 66° W 22:19:16 10° N
Cosmos 2278 Rocket 2.1 22:10:03 10° SSW 22:15:41 75° ESE 22:21:23 10° NNE
Cosmos 2084 3.0 22:14:04 11° SSW 22:17:47 72° SE 22:21:37 10° NE
COSMOS 2487 2.4 22:14:26 10° NNW 22:18:04 82° ENE 22:18:52 52° SSE
Cosmos 1741 Rocket 4.4 22:13:06 10° N 22:18:10 48° ENE 22:20:10 32° ESE
Cosmos 1844 4.0 22:13:04 10° SSW 22:18:47 70° WNW 22:24:36 10° NNE
Cosmos 489 Rocket 4.4 22:12:41 10° NNW 22:18:56 77° ENE 22:22:08 30° SSE
Cosmos 1833 Rocket 3.9 22:15:18 10° N 22:20:11 29° NE 22:22:38 21° E
H-2A R/B 4.1 22:19:00 10° SSW 22:22:27 23° W 22:25:51 10° NW
Cosmos 2366 rocket 4.3 22:21:19 30° SSE 22:24:04 49° E 22:30:08 10° NNE
CENTAUR R/B 4.4 22:18:03 10° NW 22:24:52 32° WSW 22:31:33 11° SSW
Cosmos 1844 Rocket 3.8 22:21:15 10° SW 22:26:38 45° WNW 22:32:04 10° NNE
Cosmos 1812 4.4 22:25:01 10° NNE 22:27:53 21° ENE 22:27:53 21° ENE
YAOGAN 6 3.9 22:26:29 22° SW 22:28:03 33° W 22:31:17 10° NNW
CZ-4C R/B 3.3 22:27:38 51° ESE 22:28:18 62° ENE 22:32:17 10° N
Cosmos 1408 3.7 22:27:07 17° SW 22:29:36 41° W 22:33:06 10° N
APEX 3.5 22:30:41 51° ESE 22:30:54 51° ESE 22:35:33 10° NNE
Cosmos 2082 Rocket 2.7 22:29:44 10° NNW 22:35:15 47° ENE 22:37:16 33° ESE
USA 229 DEB 4.4 22:29:01 10° NNW 22:35:52 48° NE 22:39:42 26° ESE
USA 229 4.4 22:29:08 10° NNW 22:35:58 47° NE 22:39:49 26° ESE
Okean 2 Rocket 3.7 22:40:10 23° SSW 22:42:43 54° W 22:47:03 10° N
Cosmos 1023 Rocket 4.5 22:38:48 10° NNW 22:43:54 73° WSW 22:45:34 42° S
Cosmos 1242 Rocket 3.0 22:40:50 10° NNW 22:44:24 55° W 22:44:55 49° SW
Landsat 7 3.8 22:43:54 46° S 22:45:19 81° WSW 22:50:07 10° NNW
Cosmos 2297 3.6 22:44:49 35° S 22:47:14 69° ESE 22:52:57 10° NNE
Cosmos 2218 Rocket 4.0 22:43:59 30° S 22:47:24 86° E 22:53:51 10° N
H-2A R/B 2.1 22:46:19 44° SSE 22:48:09 88° ENE 22:53:32 10° NNW
DELTA 2 DEB (DPAF) 4.2 22:47:17 51° S 22:48:22 76° WSW 22:52:51 10° NNW
Cosmos 1420 Rocket 4.2 22:49:10 20° SSW 22:52:49 69° WNW 22:58:02 10° NNE
Terra 1.8 23:00:11 59° S 23:01:05 81° WSW 23:05:51 10° NNW
Spot 4 3.8 23:00:34 61° SE 23:01:21 78° ENE 23:06:14 10° N
IGS 5A 3.3 23:01:46 78° SSW 23:02:00 84° WSW 23:06:11 10° NNW
Cosmos 1727 Rocket 3.9 22:58:20 10° N 23:04:32 88° E 23:06:29 47° S
ASTEX 1 3.4 23:00:07 10° NNE 23:05:00 58° E 23:05:18 57° ESE
SAR-Lupe-2 4.0 23:11:11 58° NNW 23:11:11 58° NNW 23:14:08 10° NNW
Okean 1 3.8 23:06:52 10° N 23:10:24 52° NE 23:10:24 52° NE
Cosmos 614 Rocket 4.1 23:08:27 10° NNW 23:13:29 59° WSW 23:14:18 52° SW
BREEZE-M DEB (TANK) 3.4 23:09:04 10° WNW 23:16:25 41° SW 23:16:25 41° SW
Timation 2 Rocket 4.3 23:12:43 10° NW 23:18:29 50° WSW 23:20:00 40° SSW
CARTOSAT-1 4.3 23:21:54 42° WSW 23:22:12 42° W 23:26:19 10° NNW
DNEPR-1 R/B 4.4 23:20:21 10° NW 23:25:19 43° WSW 23:25:27 43° WSW
Cosmos 2369 Rocket 4.0 23:28:03 17° E 23:28:03 17° E 23:30:23 10° ENE
Meteor 1-20 Rocket 4.1 23:25:48 57° SSW 23:27:00 82° W 23:32:35 10° N
Cosmos 1536 Rocket 4.4 23:29:09 10° NNW 23:33:23 42° W 23:33:38 42° WSW
USA 234 3.6 23:29:56 10° NE 23:36:25 65° NW 23:42:50 10° WSW
Cosmos 1821 Rocket 4.0 23:41:13 57° ESE 23:41:53 61° E 23:48:02 10° NNE
